Weather History for Warsaw, IN

Change the Weather History Date:

Tuesday, November 22, 2011

  Actual Average Record
Temperature  
Mean Temperature 37 °F -  
Max Temperature 41 °F 46 °F 66 °F (2010)
Min Temperature 33 °F 29 °F 7 °F (1964)
Degree Days  
Heating Degree Days 28    
Moisture  
Dew Point 35 °F    
Average Humidity 90    
Maximum Humidity 100    
Minimum Humidity 81    
Precipitation  
Precipitation 0.83 in - - ()
Sea Level Pressure  
Sea Level Pressure 29.96 in    
Wind  
Wind Speed 12 mph (ENE)    
Max Wind Speed 22 mph    
Max Gust Speed 32 mph    
Visibility 8 miles    
Events Rain    
Averages and records for this station are not official NWS values.
T = Trace of Precipitation, MM = Missing Value Source: NWS Daily Summary

Daily Weather History Graph

Daily Weather History Graph

Search for Another Location

Airport:

Trip Planner

Search our weather history database for the weather conditions in past years. The results will help you decide how hot, cold, wet, or windy it might be!

Date:

Astronomy

Nov. 22, 2011 Rise Set
Actual Time 7:39 AM EST 5:19 PM EST
Civil Twilight 7:09 AM EST 5:49 PM EST
Nautical Twilight 6:35 AM EST 6:23 PM EST
Astronomical Twilight 6:02 AM EST 6:55 PM EST
Moon 4:27 AM EST (11/22) 3:19 PM EST (11/22)
Length of Visible Light 10h 39m
Length of Day
9h 39m
Waning Crescent, 9% of the Moon is Illuminated
Nov 22
Waning Crescent
Nov 25
New
Dec 2
First Quarter
Dec 10
Full
Dec 17
Last Quarter

Hourly Weather History & Observations

Time (EST) Temp. Windchill Dew Point Humidity Pressure Visibility Wind Dir Wind Speed Gust Speed Precip Events Conditions
12:15 AM 35.6 °F 28.6 °F 32.0 °F 87% 30.20 in 10.0 mi East 9.2 mph - N/A   Clear
12:35 AM 35.6 °F 28.6 °F 32.0 °F 87% 30.20 in 10.0 mi East 9.2 mph - N/A   Clear
12:55 AM 35.6 °F 28.6 °F 32.0 °F 87% 30.20 in 10.0 mi East 9.2 mph - N/A   Clear
1:15 AM 35.6 °F 29.2 °F 32.0 °F 87% 30.20 in 10.0 mi East 8.1 mph - N/A   Clear
1:35 AM 35.6 °F 29.9 °F 32.0 °F 87% 30.20 in 10.0 mi East 6.9 mph - N/A   Clear
1:55 AM 33.8 °F 27.0 °F 32.0 °F 93% 30.20 in 10.0 mi East 8.1 mph - N/A   Clear
2:15 AM 35.6 °F 28.6 °F 32.0 °F 87% 30.19 in 10.0 mi East 9.2 mph - N/A   Clear
2:35 AM 35.6 °F 29.2 °F 32.0 °F 87% 30.18 in 10.0 mi East 8.1 mph - N/A   Clear
2:55 AM 35.6 °F 28.0 °F 32.0 °F 87% 30.17 in 10.0 mi East 10.4 mph - N/A   Clear
3:15 AM 35.6 °F 27.1 °F 32.0 °F 87% 30.17 in 10.0 mi East 12.7 mph 17.3 mph N/A   Scattered Clouds
3:35 AM 35.6 °F 28.6 °F 32.0 °F 87% 30.16 in 10.0 mi East 9.2 mph - N/A   Scattered Clouds
3:55 AM 35.6 °F 27.5 °F 33.8 °F 93% 30.15 in 10.0 mi East 11.5 mph - N/A   Clear
4:15 AM 35.6 °F 27.1 °F 33.8 °F 93% 30.13 in 10.0 mi East 12.7 mph 17.3 mph N/A   Clear
4:35 AM 35.6 °F 27.5 °F 33.8 °F 93% 30.13 in 10.0 mi East 11.5 mph - N/A   Mostly Cloudy
4:55 AM 35.6 °F 27.5 °F 33.8 °F 93% 30.12 in 10.0 mi East 11.5 mph - N/A   Overcast
5:15 AM 35.6 °F 27.1 °F 33.8 °F 93% 30.11 in 10.0 mi East 12.7 mph - N/A   Overcast
5:35 AM 35.6 °F 28.0 °F 33.8 °F 93% 30.11 in 10.0 mi East 10.4 mph - N/A   Overcast
5:55 AM 35.6 °F 26.6 °F 33.8 °F 93% 30.10 in 10.0 mi East 13.8 mph 17.3 mph N/A   Overcast
6:15 AM 37.4 °F 29.8 °F 33.8 °F 87% 30.09 in 10.0 mi East 11.5 mph 19.6 mph N/A   Overcast
6:35 AM 37.4 °F 29.3 °F 33.8 °F 87% 30.09 in 10.0 mi East 12.7 mph 18.4 mph N/A   Overcast
6:55 AM 37.4 °F 28.9 °F 33.8 °F 87% 30.08 in 10.0 mi East 13.8 mph 20.7 mph N/A   Overcast
7:15 AM 37.4 °F 28.9 °F 33.8 °F 87% 30.07 in 7.0 mi East 13.8 mph 19.6 mph N/A   Overcast
7:35 AM 37.4 °F 30.3 °F 33.8 °F 87% 30.07 in 10.0 mi East 10.4 mph 21.9 mph N/A   Overcast
8:15 AM 37.4 °F 29.3 °F 33.8 °F 87% 30.05 in 10.0 mi East 12.7 mph 18.4 mph N/A   Overcast
8:35 AM 37.4 °F 29.3 °F 33.8 °F 87% 30.06 in 10.0 mi East 12.7 mph 21.9 mph N/A   Overcast
8:55 AM 37.4 °F 29.3 °F 33.8 °F 87% 30.05 in 10.0 mi East 12.7 mph 18.4 mph N/A   Overcast
9:15 AM 39.2 °F 31.6 °F 33.8 °F 81% 30.05 in 10.0 mi East 12.7 mph 23.0 mph N/A   Overcast
9:35 AM 39.2 °F 30.8 °F 35.6 °F 87% 30.01 in 10.0 mi East 15.0 mph 25.3 mph N/A   Overcast
9:55 AM 39.2 °F 30.2 °F 35.6 °F 87% 29.99 in 10.0 mi East 17.3 mph 23.0 mph N/A   Overcast
10:15 AM 41.0 °F 33.1 °F 35.6 °F 81% 30.00 in 10.0 mi East 15.0 mph 23.0 mph N/A   Overcast
10:35 AM 41.0 °F 33.5 °F 35.6 °F 81% 29.98 in 10.0 mi East 13.8 mph 21.9 mph N/A   Overcast
11:15 AM 41.0 °F 33.9 °F 35.6 °F 81% 29.97 in 7.0 mi ENE 12.7 mph 18.4 mph N/A Rain Light Rain
11:35 AM 41.0 °F 33.5 °F 37.4 °F 87% 29.97 in 5.0 mi East 13.8 mph - 0.02 in Rain Light Rain
11:55 AM 41.0 °F 33.1 °F 37.4 °F 87% 29.95 in 5.0 mi East 15.0 mph - 0.05 in Rain Light Rain
12:15 PM 39.2 °F 30.5 °F 37.4 °F 93% 29.92 in 4.0 mi ENE 16.1 mph 19.6 mph 0.01 in Rain Light Rain
12:35 PM 41.0 °F 32.8 °F 37.4 °F 87% 29.89 in 4.0 mi ENE 16.1 mph 23.0 mph 0.03 in Rain Light Rain
12:55 PM 39.2 °F 31.2 °F 37.4 °F 93% 29.88 in 4.0 mi ENE 13.8 mph 20.7 mph 0.04 in Rain Rain
1:15 PM 39.2 °F 30.5 °F 37.4 °F 93% 29.85 in 3.0 mi ENE 16.1 mph 21.9 mph 0.03 in Rain Rain
1:35 PM 39.2 °F 31.2 °F 37.4 °F 93% 29.84 in 5.0 mi ENE 13.8 mph 18.4 mph 0.05 in Rain Light Rain
1:55 PM 39.2 °F 31.2 °F 37.4 °F 93% 29.82 in 3.0 mi ENE 13.8 mph 18.4 mph 0.09 in Rain Rain
2:15 PM 39.2 °F 30.8 °F 37.4 °F 93% 29.82 in 2.5 mi ENE 15.0 mph - 0.09 in Rain Heavy Rain
2:35 PM 39.2 °F 31.6 °F 37.4 °F 93% 29.79 in 4.0 mi ENE 12.7 mph 18.4 mph 0.17 in Rain Heavy Rain
2:55 PM 39.2 °F 30.5 °F 37.4 °F 93% 29.79 in 4.0 mi ENE 16.1 mph 21.9 mph 0.26 in Rain Heavy Rain
3:15 PM 39.2 °F 30.8 °F 37.4 °F 93% 29.78 in 3.0 mi ENE 15.0 mph - 0.08 in Rain Rain
3:35 PM 39.2 °F 30.8 °F 37.4 °F 93% 29.77 in 4.0 mi ENE 15.0 mph 19.6 mph 0.15 in Rain Heavy Rain
3:55 PM 41.0 °F 33.1 °F 37.4 °F 87% 29.75 in 7.0 mi ENE 15.0 mph 23.0 mph 0.20 in Rain Rain
4:15 PM 41.0 °F 31.9 °F 37.4 °F 87% 29.74 in 7.0 mi ENE 19.6 mph 25.3 mph 0.03 in Rain Light Rain
4:35 PM 39.2 °F 29.0 °F 37.4 °F 93% 29.73 in 10.0 mi ENE 21.9 mph 32.2 mph 0.03 in Rain Light Rain
4:55 PM 39.2 °F 30.8 °F 37.4 °F 93% 29.73 in 10.0 mi East 15.0 mph 25.3 mph 0.04 in Rain Light Rain
5:15 PM 39.2 °F 30.5 °F 35.6 °F 87% 29.73 in 10.0 mi ENE 16.1 mph 25.3 mph N/A Rain Light Rain
5:35 PM 39.2 °F 31.2 °F 35.6 °F 87% 29.74 in 10.0 mi NE 13.8 mph 19.6 mph N/A Rain Light Rain
5:55 PM 37.4 °F 29.8 °F 35.6 °F 93% 29.73 in 7.0 mi NE 11.5 mph 18.4 mph 0.01 in Rain Rain
6:15 PM 37.4 °F 28.2 °F 35.6 °F 93% 29.73 in 5.0 mi NE 16.1 mph 21.9 mph 0.01 in Rain Rain
6:55 PM 37.4 °F 29.3 °F 35.6 °F 93% 29.74 in 10.0 mi NE 12.7 mph 18.4 mph 0.08 in Rain Light Rain
7:15 PM 37.4 °F 29.8 °F 35.6 °F 93% 29.76 in 7.0 mi North 11.5 mph 18.4 mph 0.01 in Rain Light Rain
7:35 PM 37.4 °F 29.8 °F 35.6 °F 93% 29.77 in 10.0 mi North 11.5 mph 20.7 mph 0.01 in Rain Light Rain
8:15 PM 35.6 °F 28.6 °F 33.8 °F 93% 29.79 in 10.0 mi North 9.2 mph 12.7 mph 0.01 in Rain Light Rain
8:35 PM 35.6 °F 28.0 °F 33.8 °F 93% 29.80 in 7.0 mi North 10.4 mph 19.6 mph 0.02 in Rain Light Rain
8:55 PM 33.8 °F 26.4 °F 33.8 °F 100% 29.81 in 7.0 mi North 9.2 mph - 0.03 in Rain Light Rain
9:15 PM 33.8 °F 27.7 °F 33.8 °F 100% 29.83 in 7.0 mi North 6.9 mph - 0.01 in Rain Rain
9:35 PM 33.8 °F 26.4 °F 33.8 °F 100% 29.84 in 7.0 mi NNW 9.2 mph - 0.02 in Rain Light Rain
9:55 PM 33.8 °F 25.3 °F 33.8 °F 100% 29.85 in 7.0 mi NNW 11.5 mph 16.1 mph 0.03 in Rain Light Rain
10:15 PM 33.8 °F 25.3 °F 33.8 °F 100% 29.85 in 7.0 mi NNW 11.5 mph - 0.01 in Rain Light Rain
10:35 PM 33.8 °F 24.8 °F 33.8 °F 100% 29.87 in 7.0 mi NW 12.7 mph 16.1 mph 0.01 in Rain Light Rain
11:15 PM 33.8 °F 25.3 °F 33.8 °F 100% 29.88 in 7.0 mi NNW 11.5 mph 16.1 mph 0.01 in Rain Light Rain
11:35 PM 33.8 °F 26.4 °F 33.8 °F 100% 29.89 in 7.0 mi NNW 9.2 mph - 0.02 in Rain Rain
11:55 PM 33.8 °F 27.7 °F 33.8 °F 100% 29.90 in 7.0 mi NNW 6.9 mph - 0.03 in Rain Light Rain